Вернуться в каталог

SYNCOM 3

АктивенСвязьGEO
NORAD 858·PAYLOAD·🇺🇸 United States

Запущен Aug 19, 1964 с Cape Canaveral Space Force Station

Loading…

TLE

СвежийSource: Space-Track

Эпоха: Sep 14, 2026, 09:13 UTC

1 00858U 64047A   26257.38444517 -.00000371  00000-0  00000-0 0  9992
2 00858   7.1783  63.5238 0004557 160.1567  25.1373  1.00364796 54368

Отслеживайте SYNCOM 3 в реальном времени с AllMySat

Download on the App Store